User: anonymous   Login
Location: Bílinka
(49.3579°N, 14.3767°E)
Time: 22:34:29
(UTC+00:00)
Language:

CSL-04 Rocket - Orbit

View from above orbital plane
View from above orbital plane
View from above satellite
View from above satellite

Ground track
Ground track

The orbit data is extracted from the following two-line orbital elements,

1 25732U 99025C   23159.13200872  .00000076  00000-0  58360-4 0  9996
2 25732  98.8037 203.4663 0037090 352.0901  70.1544 14.17825199245659
Epoch (UTC): 08 June 2023 03:10:05
Eccentricity: 0.0037090
inclination: 98.8037°
perigee height: 806 km
apogee height: 859 km
right ascension of ascending node: 203.4663°
argument of perigee: 352.0901°
revolutions per day: 14.17825199
mean anomaly at epoch: 70.1544°
orbit number at epoch: 24565

The dashed part of the orbit path shows where the satellite is in the earth's shadow,  

DLR